When you browse on this site, cookies collect data to enhance your experience and personalize the content and advertising you see.
Visit our Privacy Policy to learn more. By continuing to use the site, you agree to this use of cookies and data.
  • In Latvia
  • List of Countries
  • For 7 days
  • Water Temperature
  • Satellite Maps
  • Weather Map
  • Weather Widgets
  • user-avatar
    Login

    Hourly Weather Juwaja

    Today, 20 June, Thursday

    Time Temperature Precipitation Wind Pressure Humidity
    00:00 +21°C° 0 mm 1 mps 733 mmHg 88%
    01:00 +20°C° 0 mm 2 mps 733 mmHg 88%
    02:00 +20°C° 0 mm 2 mps 733 mmHg 87%
    03:00 +20°C° 0 mm 2 mps 733 mmHg 88%
    04:00 +21°C° 0 mm 2 mps 733 mmHg 88%
    05:00 +22°C° 0 mm 1 mps 733 mmHg 89%
    06:00 +23°C° 0 mm 2 mps 733 mmHg 83%
    07:00 +24°C° 0 mm 2 mps 734 mmHg 78%
    08:00 +26°C° 0 mm 3 mps 734 mmHg 72%
    09:00 +27°C° 0 mm 4 mps 734 mmHg 65%
    10:00 +28°C° 0 mm 4 mps 734 mmHg 57%
    11:00 +30°C° 0 mm 5 mps 734 mmHg 49%
    12:00 +30°C° 0 mm 5 mps 734 mmHg 49%
    13:00 +30°C° 0 mm 5 mps 733 mmHg 50%
    14:00 +30°C° 0 mm 6 mps 733 mmHg 50%
    15:00 +29°C° 0 mm 5 mps 733 mmHg 52%
    16:00 +28°C° 0 mm 4 mps 733 mmHg 53%
    17:00 +27°C° 0 mm 4 mps 732 mmHg 55%
    18:00 +26°C° 0 mm 3 mps 733 mmHg 64%
    19:00 +24°C° 0 mm 2 mps 733 mmHg 72%
    20:00 +22°C° 0 mm 1 mps 733 mmHg 81%
    21:00 +22°C° 0 mm 1 mps 733 mmHg 82%
    22:00 +22°C° 0 mm 1 mps 733 mmHg 83%
    23:00 +21°C° 0 mm 1 mps 733 mmHg 84%

    Tomorrow, 21 June, Friday

    Time Temperature Precipitation Wind Pressure Humidity
    00:00 +21°C° 0 mm 1 mps 733 mmHg 85%
    01:00 +21°C° 0 mm 1 mps 733 mmHg 86%
    02:00 +20°C° 0 mm 1 mps 732 mmHg 86%
    03:00 +21°C° 0 mm 1 mps 732 mmHg 87%
    04:00 +20°C° 0 mm 2 mps 733 mmHg 88%
    05:00 +20°C° 0 mm 2 mps 733 mmHg 89%
    06:00 +23°C° 0 mm 2 mps 733 mmHg 80%
    07:00 +24°C° 0 mm 3 mps 733 mmHg 72%
    08:00 +26°C° 0 mm 4 mps 734 mmHg 64%
    09:00 +27°C° 0 mm 4 mps 734 mmHg 60%
    10:00 +28°C° 0 mm 5 mps 734 mmHg 57%
    11:00 +29°C° 0 mm 5 mps 734 mmHg 54%
    12:00 +29°C° 0 mm 5 mps 733 mmHg 54%
    13:00 +29°C° 0 mm 5 mps 733 mmHg 55%
    14:00 +29°C° 0 mm 5 mps 733 mmHg 55%
    15:00 +29°C° 0 mm 5 mps 733 mmHg 58%
    16:00 +28°C° 0 mm 4 mps 732 mmHg 60%
    17:00 +27°C° 0 mm 3 mps 732 mmHg 63%
    18:00 +26°C° 0 mm 3 mps 732 mmHg 71%
    19:00 +24°C° 0 mm 2 mps 732 mmHg 79%
    20:00 +23°C° 0 mm 1 mps 733 mmHg 87%
    21:00 +22°C° 0 mm 1 mps 733 mmHg 88%
    22:00 +22°C° 0 mm 1 mps 733 mmHg 89%
    23:00 +22°C° 0 mm 1 mps 733 mmHg 90%

    Day after tomorrow, 22 June, Saturday

    Time Temperature Precipitation Wind Pressure Humidity
    00:00 +22°C° 0 mm 1 mps 733 mmHg 91%
    01:00 +21°C° 0 mm 1 mps 733 mmHg 91%
    02:00 +20°C° 0 mm 2 mps 733 mmHg 92%
    03:00 +21°C° 0 mm 2 mps 733 mmHg 92%
    04:00 +21°C° 0 mm 2 mps 733 mmHg 92%
    05:00 +21°C° 0 mm 2 mps 733 mmHg 91%
    06:00 +24°C° 0 mm 2 mps 733 mmHg 84%
    07:00 +25°C° 0 mm 3 mps 734 mmHg 77%
    08:00 +26°C° 0 mm 4 mps 734 mmHg 69%
    09:00 +28°C° 0 mm 4 mps 734 mmHg 64%
    10:00 +29°C° 0 mm 5 mps 734 mmHg 58%
    11:00 +30°C° 0 mm 5 mps 734 mmHg 53%
    12:00 +30°C° 0 mm 5 mps 734 mmHg 53%
    13:00 +30°C° 0 mm 5 mps 734 mmHg 53%
    14:00 +30°C° 0 mm 5 mps 733 mmHg 54%
    15:00 +29°C° 0 mm 4 mps 733 mmHg 56%
    16:00 +28°C° 0 mm 4 mps 733 mmHg 59%
    17:00 +28°C° 0 mm 3 mps 733 mmHg 62%
    18:00 +26°C° 0 mm 2 mps 733 mmHg 70%
    19:00 +25°C° 0 mm 2 mps 733 mmHg 79%
    20:00 +23°C° 0 mm 1 mps 733 mmHg 88%
    21:00 +22°C° 0 mm 1 mps 733 mmHg 88%
    22:00 +22°C° 0 mm 1 mps 733 mmHg 89%
    23:00 +22°C° 0 mm 1 mps 733 mmHg 89%

    23 June, Sunday

    Time Temperature Precipitation Wind Pressure Humidity
    00:00 +21°C° 0 mm 1 mps 733 mmHg 89%
    01:00 +21°C° 0 mm 1 mps 733 mmHg 89%
    02:00 +21°C° 0 mm 1 mps 733 mmHg 90%
    03:00 +21°C° 0 mm 1 mps 733 mmHg 89%
    04:00 +21°C° 0 mm 1 mps 733 mmHg 88%
    05:00 +21°C° 0 mm 1 mps 733 mmHg 88%
    06:00 +23°C° 0 mm 1 mps 733 mmHg 79%
    07:00 +25°C° 0 mm 2 mps 734 mmHg 69%
    08:00 +27°C° 0 mm 2 mps 734 mmHg 60%
    09:00 +28°C° 0 mm 3 mps 734 mmHg 59%
    10:00 +29°C° 0 mm 3 mps 734 mmHg 57%
    11:00 +30°C° 0 mm 4 mps 734 mmHg 55%
    12:00 +30°C° 0 mm 4 mps 734 mmHg 56%
    13:00 +32°C° 0 mm 4 mps 734 mmHg 57%
    14:00 +32°C° 0 mm 4 mps 734 mmHg 57%
    15:00 +30°C° 0 mm 4 mps 733 mmHg 58%
    16:00 +29°C° 0 mm 3 mps 733 mmHg 58%
    17:00 +29°C° 0 mm 3 mps 733 mmHg 58%
    18:00 +27°C° 0 mm 3 mps 733 mmHg 67%
    19:00 +25°C° 0 mm 2 mps 733 mmHg 76%
    20:00 +23°C° 0 mm 2 mps 733 mmHg 84%
    21:00 +23°C° 0 mm 2 mps 733 mmHg 82%
    22:00 +23°C° 0 mm 1 mps 733 mmHg 79%
    23:00 +22°C° 0 mm 1 mps 733 mmHg 77%

    24 June, Monday

    Time Temperature Precipitation Wind Pressure Humidity
    00:00 +22°C° 0 mm 1 mps 733 mmHg 78%
    01:00 +22°C° 0 mm 1 mps 733 mmHg 80%
    02:00 +21°C° 0 mm 2 mps 733 mmHg 81%
    03:00 +22°C° 0 mm 1 mps 733 mmHg 82%
    04:00 +22°C° 0 mm 1 mps 733 mmHg 83%
    05:00 +22°C° 0 mm 1 mps 733 mmHg 84%
    06:00 +24°C° 0 mm 1 mps 733 mmHg 75%
    07:00 +27°C° 0 mm 1 mps 733 mmHg 65%
    08:00 +29°C° 0 mm 1 mps 734 mmHg 56%
    09:00 +30°C° 0 mm 2 mps 734 mmHg 53%
    10:00 +33°C° 0 mm 3 mps 734 mmHg 49%
    11:00 +34°C° 0 mm 3 mps 734 mmHg 46%
    12:00 +34°C° 0 mm 4 mps 733 mmHg 46%
    13:00 +34°C° 0 mm 4 mps 733 mmHg 46%
    14:00 +34°C° 0 mm 4 mps 733 mmHg 46%
    15:00 +33°C° 0 mm 4 mps 733 mmHg 49%
    16:00 +33°C° 0 mm 4 mps 732 mmHg 51%
    17:00 +32°C° 0 mm 4 mps 732 mmHg 53%
    18:00 +29°C° 0 mm 3 mps 732 mmHg 61%
    19:00 +27°C° 0 mm 2 mps 732 mmHg 69%
    20:00 +25°C° 0 mm 2 mps 732 mmHg 77%
    21:00 +25°C° 0 mm 2 mps 732 mmHg 75%
    22:00 +25°C° 0 mm 2 mps 732 mmHg 73%
    23:00 +25°C° 0 mm 2 mps 732 mmHg 71%

    25 June, Tuesday

    Time Temperature Precipitation Wind Pressure Humidity
    00:00 +24°C° 0 mm 2 mps 732 mmHg 72%
    01:00 +24°C° 0 mm 2 mps 732 mmHg 74%
    02:00 +23°C° 0 mm 2 mps 732 mmHg 75%
    03:00 +24°C° 0 mm 1 mps 732 mmHg 75%
    04:00 +24°C° 0 mm 1 mps 732 mmHg 74%
    05:00 +24°C° 0 mm 1 mps 732 mmHg 73%
    06:00 +27°C° 0 mm 1 mps 732 mmHg 63%
    07:00 +29°C° 0 mm 1 mps 733 mmHg 53%
    08:00 +32°C° 0 mm 1 mps 733 mmHg 43%
    09:00 +34°C° 0 mm 2 mps 733 mmHg 42%
    10:00 +35°C° 0 mm 2 mps 733 mmHg 40%
    11:00 +36°C° 0 mm 3 mps 733 mmHg 39%
    12:00 +36°C° 0 mm 3 mps 732 mmHg 40%
    13:00 +36°C° 0 mm 4 mps 732 mmHg 40%
    14:00 +36°C° 0 mm 4 mps 732 mmHg 41%
    15:00 +36°C° 0 mm 4 mps 732 mmHg 42%
    16:00 +35°C° 0 mm 4 mps 731 mmHg 43%
    17:00 +34°C° 0 mm 4 mps 731 mmHg 44%
    18:00 +32°C° 0 mm 4 mps 731 mmHg 48%
    19:00 +30°C° 0 mm 3 mps 731 mmHg 52%
    20:00 +28°C° 0 mm 3 mps 731 mmHg 56%
    21:00 +27°C° 0 mm 3 mps 731 mmHg 57%
    22:00 +27°C° 0 mm 2 mps 731 mmHg 59%
    23:00 +26°C° 0 mm 2 mps 731 mmHg 60%
    Show more